Regional Weather Roundup
Issued by NWS

Home | Current Version | Previous Version | Graphics & Text | Print | Product List | Glossary On
Versions: 1 2 3 4 5 6 7 8 9 10 11 12 13 14 15 16 17 18 19 20 21 22 23 24 25 26 27 28 29 30 31 32 33 34 35 36 37 38 39 40 41 42 43 44 45 46 47 48 49 50
000
ASUS43 KOAX 261910
RWRNE

WEATHER ROUNDUP FOR NEBRASKA
NATIONAL WEATHER SERVICE OMAHA NE
200 PM CDT SUN APR 26 2015

NOTES: SATELLITE DATA IS BEING USED TO AUGMENT CLOUD COVER ABOVE
       12000 FEET.
       "FAIR" INDICATES FEW OR NO CLOUDS BELOW 12,000 FEET WITH NO
       SIGNIFICANT WEATHER AND/OR OBSTRUCTIONS TO VISIBILITY.

  * THESE STATIONS DO NOT REPORT WEATHER SUCH AS RAIN...SNOW OR FOG.

NEZ001>004-019>022-054>056-262000-
NEBRASKA PANHANDLE

CITY           SKY/WX    TMP DP  RH WIND       PRES   REMARKS
SCOTTSBLUFF    LGT RAIN  46  32  58 E16G25    29.95S
ALLIANCE       CLOUDY    44  43  96 SE12      29.97S
CHADRON        CLOUDY    48  44  86 SE9       29.99R
KIMBALL        RAIN      42  41  96 E10       29.93R
SIDNEY         CLOUDY    42  41  96 E12       29.96S
$$

NEZ057>060-069>072-079>082-262000-
SOUTHWEST NEBRASKA

CITY           SKY/WX    TMP DP  RH WIND       PRES   REMARKS
IMPERIAL       CLOUDY    43  41  93 E13       29.97S FOG
LEXINGTON      CLOUDY    51  43  72 E12G18    29.98F
MCCOOK         CLOUDY    47  44  90 E15       29.96F FOG
OGALLALA       CLOUDY    43  42  97 E12       29.99S FOG
$$

NEZ005>010-023>029-035>040-094-262000-
NORTH CENTRAL NEBRASKA

CITY           SKY/WX    TMP DP  RH WIND       PRES   REMARKS
VALENTINE      PTSUNNY   52  38  58 SE9G18    30.03S
AINSWORTH      PTSUNNY   58  40  51 E14G22    30.01S
BROKEN BOW     CLOUDY    56  40  55 E14G26    29.99F
O`NEILL        SUNNY     60  34  37 E14G23    30.03F
ORD            MOSUNNY   57  39  51 SE14G24   30.00F
THEDFORD       CLOUDY    51  40  67 SE8       30.02S
$$

NEZ041-046>049-061>064-073>077-083>087-262000-
SOUTH CENTRAL NEBRASKA

CITY           SKY/WX    TMP DP  RH WIND       PRES   REMARKS
GRAND ISLAND   PTSUNNY   55  42  61 E15       30.01F
AURORA         PTSUNNY   56  44  63 E16       30.00S
HASTINGS       CLOUDY    54  43  66 E15G21    29.98F
HEBRON         CLOUDY    52  41  66 E14       29.99S
HOLDREGE       CLOUDY    51  42  71 E17       29.98F
KEARNEY *      CLOUDY    54  41  62 E16       30.00S
YORK           MOSUNNY   57  45  62 E17       30.00F
$$

NEZ011>018-030>034-042>045-262000-
NORTHEAST NEBRASKA

CITY           SKY/WX    TMP DP  RH WIND       PRES   REMARKS
NORFOLK        SUNNY     60  32  34 E13G21    30.03F
ALBION         SUNNY     58  37  45 E15       30.02F
BLAIR          SUNNY     58  37  44 E10G23    30.03S
COLUMBUS *     PTSUNNY   57  41  54 E14       30.05S
FREMONT        SUNNY     59  38  45 E13G23    30.03F
TEKAMAH        SUNNY     62  32  32 E13G22    30.04F
WAYNE          SUNNY     62  26  25 E16G24    30.05S
$$

NEZ050>053-065>068-078-088>093-262000-
SOUTHEAST NEBRASKA

CITY           SKY/WX    TMP DP  RH WIND       PRES   REMARKS
LINCOLN        MOSUNNY   61  42  49 E13G24    30.02F
OMAHA EPPLEY   MOSUNNY   60  37  42 E12       30.03F
BEATRICE       PTSUNNY   56  43  62 E15G21    29.99F
FALLS CITY     CLOUDY    57  42  57 NE12      30.00F
NEBRASKA CITY  MOSUNNY   58  36  44 E16       30.01F
PLATTSMOUTH    MOSUNNY   59  38  45 E14       30.02F
$$

NEZ044-045-051>053-067-262000-
OMAHA AREA

CITY           SKY/WX    TMP DP  RH WIND       PRES   REMARKS
OMAHA EPPLEY   MOSUNNY   60  37  42 E12       30.03F
BLAIR          SUNNY     58  37  44 E10G23    30.03S
FREMONT        SUNNY     59  38  45 E13G23    30.03F
MILLARD        SUNNY     58  40  50 E12       30.03S
OFFUTT AFB     SUNNY     60  42  50 E12G21    30.02F
PLATTSMOUTH    MOSUNNY   59  38  45 E14       30.02F
WAHOO          FAIR      59  40  50 E15       30.02F
$$



USA.gov is the U.S. government's official web portal to all federal, state and local government web resources and services.